K9BM Weather Reports


time (UTC)temp
F
wind
direction
speed
knots
gust
knots
rain 1hr
in
rain 24hr
in
rain mn
in
humidity
%
barometer
mb
20260506005005 41 2 4.3 7.8 0.00 0.01 0.01 62 1017.7
20260506004506 41 358 2.6 7.8 0.00 0.01 0.01 63 1017.7
20260506004006 41 290 3.5 7.8 0.00 0.01 0.01 65 1017.7
20260506003505 40 329 1.7 7.8 0.00 0.01 0.01 66 1017.6
20260506002505 39 336 4.3 10.4 0.00 0.01 0.01 68 1017.6
20260506001505 39 332 4.3 8.7 0.00 0.01 0.01 70 1017.6
20260506001005 39 328 5.2 8.7 0.00 0.01 0.01 71 1017.5
20260506000005 38 320 5.2 15.6 0.00 0.01 0.01 74 1017.6
20260505235505 37 336 7.8 15.6 0.00 0.01 0.01 74 1017.7
20260505234505 37 331 9.6 13.0 0.00 0.01 0.01 75 1017.5
20260505234005 37 338 8.7 13.9 0.00 0.01 0.01 76 1017.5
20260505233005 36 335 10.4 19.1 0.00 0.01 0.01 79 1017.3
20260505232505 36 347 10.4 20.0 0.00 0.01 0.01 79 1017.2
20260505232005 36 346 15.6 20.9 0.00 0.01 0.01 78 1017.2
20260505231505 37 352 13.9 20.9 0.00 0.01 0.01 74 1017.0
20260505231005 41 347 12.2 17.4 0.00 0.01 0.01 65 1017.0
20260505230005 43 195 4.3 6.1 0.00 0.01 0.01 61 1016.1
20260505225005 43 189 3.5 10.4 0.00 0.01 0.01 59 1016.1
20260505224505 44 192 5.2 10.4 0.00 0.01 0.01 61 1016.1
20260505224005 44 161 3.5 7.8 0.00 0.01 0.01 63 1016.1
20260505223505 43 192 5.2 8.7 0.00 0.01 0.01 64 1016.2
20260505222505 43 185 5.2 10.4 0.00 0.01 0.01 65 1016.1
20260505222006 43 166 6.1 10.4 0.00 0.01 0.01 64 1016.1
20260505221505 43 202 5.2 8.7 0.00 0.01 0.01 67 1016.1
20260505221005 43 165 6.1 8.7 0.00 0.01 0.01 68 1016.1
20260505220005 42 189 4.3 8.7 0.00 0.01 0.01 72 1016.2
20260505215505 41 197 5.2 8.7 0.00 0.01 0.01 74 1016.3
20260505214005 40 197 5.2 10.4 0.00 0.01 0.01 77 1016.2
20260505213005 39 243 7.0 10.4 0.00 0.01 0.01 82 1016.2
20260505212505 39 234 6.1 10.4 0.00 0.01 0.01 85 1016.2
20260505211505 38 234 5.2 10.4 0.00 0.01 0.01 86 1016.2
20260505211005 37 203 4.3 10.4 0.00 0.01 0.01 86 1016.4
20260505210004 37 216 4.3 17.4 0.00 0.01 0.01 85 1016.5
20260505205505 37 233 6.1 17.4 0.00 0.01 0.01 82 1016.6
20260505205005 37 247 7.0 12.2 0.00 0.01 0.01 84 1016.4
20260505204505 37 224 5.2 7.8 0.00 0.01 0.01 84 1016.3
20260505204005 37 244 5.2 8.7 0.00 0.01 0.01 84 1016.3
20260505203505 37 241 5.2 8.7 0.00 0.01 0.01 84 1016.2
20260505203005 37 220 5.2 8.7 0.01 0.01 0.01 84 1016.2
20260505202505 38 238 5.2 7.8 0.01 0.01 0.01 84 1016.3
20260505202006 38 206 4.3 7.0 0.01 0.01 0.01 84 1016.4
20260505201005 37 273 4.3 6.1 0.01 0.01 0.01 82 1016.4
20260505200005 37 316 1.7 7.0 0.01 0.01 0.01 87 1016.5
20260505195505 37 320 2.6 4.3 0.01 0.01 0.01 88 1016.5
20260505194505 36 291 2.6 7.8 0.01 0.01 0.01 88 1016.5
20260505194006 36 344 6.1 8.7 0.01 0.01 0.01 87 1016.6
20260505193506 36 333 5.2 8.7 0.01 0.01 0.01 88 1016.7
20260505192505 36 4 4.3 10.4 0.00 0.00 0.00 86 1016.8
20260505192005 37 2 6.1 10.4 0.00 0.00 0.00 85 1016.9
20260505191505 37 22 5.2 8.7 0.00 0.00 0.00 85 1016.8
20260505191005 37 27 5.2 8.7 0.00 0.00 0.00 84 1016.8
20260505185505 38 350 8.7 18.2 0.00 0.00 0.00 74 1016.6
20260505185005 39 10 8.7 19.1 0.00 0.00 0.00 70 1016.4
20260505184505 41 352 12.2 19.1 0.00 0.00 0.00 59 1016.2
20260505184005 42 329 7.8 13.0 0.00 0.00 0.00 56 1015.9
20260505183505 42 335 7.8 11.3 0.00 0.00 0.00 57 1015.8
20260505183006 42 332 4.3 10.4 0.00 0.00 0.00 56 1015.8
20260505182504 42 328 5.2 12.2 0.00 0.00 0.00 55 1015.8
20260505182005 43 349 6.1 12.2 0.00 0.00 0.00 54 1015.8
20260505181505 43 302 6.1 17.4 0.00 0.00 0.00 54 1015.8
20260505180005 45 330 4.3 10.4 0.00 0.00 0.00 45 1015.6
20260505175505 45 164 1.7 7.0 0.00 0.00 0.00 46 1015.6
20260505175005 45 297 4.3 7.0 0.00 0.00 0.00 47 1015.8
20260505174505 44 240 3.5 10.4 0.00 0.00 0.00 46 1015.7
20260505174005 43 153 1.7 10.4 0.00 0.00 0.00 50 1015.8
20260505173505 43 254 4.3 10.4 0.00 0.00 0.00 50 1015.8
20260505173005 43 260 4.3 11.3 0.00 0.00 0.00 50 1015.9
20260505172005 42 338 2.6 8.7 0.00 0.00 0.00 50 1016.1
20260505171505 42 287 3.5 7.0 0.00 0.00 0.00 51 1016.2
20260505171006 41 304 2.6 6.1 0.00 0.00 0.00 52 1016.2
20260505170005 40 336 0.9 8.7 0.00 0.00 0.00 51 1016.3
20260505164504 41 271 1.7 6.1 0.00 0.00 0.00 52 1016.3
20260505163505 40 313 0.9 4.3 0.00 0.00 0.00 51 1016.4
20260505163006 40 320 2.6 4.3 0.00 0.00 0.00 52 1016.4
20260505162006 40 319 0.9 4.3 0.00 0.00 0.00 52 1016.4
20260505161505 40 327 1.7 7.0 0.00 0.00 0.00 52 1016.4
20260505161005 40 322 3.5 7.0 0.00 0.00 0.00 52 1016.3
20260505153005 40 26 1.7 7.8 0.00 0.00 0.00 54 1016.2
20260505152505 40 30 2.6 7.0 0.00 0.00 0.00 55 1016.2
20260505151005 39 20 2.6 7.0 0.00 0.00 0.00 53 1016.2
20260505124005 31 42 1.7 2.6 0.00 0.00 0.00 77 1015.4
20260505123005 31 41 1.7 2.6 0.00 0.00 0.00 77 1015.2
20260505122505 31 41 1.7 2.6 0.00 0.00 0.00 77 1015.3
20260505120005 31 40 1.7 2.6 0.00 0.00 0.00 74 1015.2
20260505115005 30 37 1.7 4.3 0.00 0.00 0.00 74 1015.3
20260505114505 30 37 2.6 4.3 0.00 0.00 0.00 74 1015.4
20260505114005 31 36 2.6 4.3 0.00 0.00 0.00 72 1015.4
20260505113505 31 36 2.6 4.3 0.00 0.00 0.00 70 1015.4
20260505113005 32 38 2.6 4.3 0.00 0.00 0.00 70 1015.2
20260505112504 32 54 2.6 5.2 0.00 0.00 0.00 70 1015.2
20260505112004 32 55 2.6 5.2 0.00 0.00 0.00 70 1015.2
20260505111505 32 57 4.3 5.2 0.00 0.00 0.00 70 1015.1
20260505111005 32 61 2.6 4.3 0.00 0.00 0.00 70 1015.1
20260505102005 32 82 2.6 6.1 0.00 0.00 0.00 71 1015.3
20260505101505 31 90 3.5 7.0 0.00 0.00 0.00 71 1015.3
20260505101005 31 103 5.2 7.0 0.00 0.00 0.00 71 1015.2
20260505100004 32 100 3.5 6.1 0.00 0.00 0.00 69 1015.2
20260505095504 32 107 2.6 6.1 0.00 0.00 0.00 68 1015.2
20260505095005 32 105 5.2 6.1 0.00 0.00 0.00 68 1015.1
20260505094504 33 93 3.5 5.2 0.00 0.00 0.00 67 1015.1
20260505093504 34 93 4.3 5.2 0.00 0.00 0.00 64 1014.9
20260505093005 34 83 2.6 5.2 0.00 0.00 0.00 64 1014.9
20260505092504 34 76 2.6 5.2 0.00 0.00 0.00 63 1014.8
20260505092004 34 71 2.6 5.2 0.00 0.00 0.00 63 1014.8
20260505091005 34 80 0.9 2.6 0.00 0.00 0.00 62 1014.8
20260505090005 34 81 0.9 1.7 0.00 0.00 0.00 62 1014.8
20260505085505 34 81 0.0 1.7 0.00 0.00 0.00 62 1014.7
20260505085005 34 81 0.9 2.6 0.00 0.00 0.00 62 1014.7
20260505084004 35 81 1.7 6.1 0.00 0.00 0.00 60 1014.7
20260505083504 35 80 2.6 6.1 0.00 0.00 0.00 60 1014.6
20260505083005 36 79 4.3 7.0 0.00 0.00 0.00 59 1014.6
20260505082505 36 61 5.2 10.4 0.00 0.00 0.00 58 1014.4
20260505082005 36 52 5.2 10.4 0.00 0.00 0.00 58 1014.3
20260505081505 37 40 5.2 10.4 0.00 0.00 0.00 57 1014.3
20260505081004 38 39 6.1 10.4 0.00 0.00 0.00 55 1014.5
20260505075505 39 33 4.3 8.7 0.00 0.00 0.00 53 1014.3
20260505075005 40 26 4.3 10.4 0.00 0.00 0.00 53 1014.3
20260505074504 40 16 6.1 11.3 0.00 0.00 0.00 52 1014.3
20260505074005 41 24 7.8 11.3 0.00 0.00 0.00 50 1014.2
20260505073504 41 54 2.6 4.3 0.00 0.00 0.00 51 1014.1
20260505073005 41 75 1.7 4.3 0.00 0.00 0.00 49 1013.9
20260505072505 41 81 2.6 4.3 0.00 0.00 0.00 49 1013.8
20260505072004 41 83 2.6 2.6 0.00 0.00 0.00 50 1013.8
20260505071504 41 84 1.7 2.6 0.00 0.00 0.00 50 1013.8
20260505071005 42 84 1.7 4.3 0.00 0.00 0.00 51 1013.9
20260505070005 42 81 2.6 5.2 0.00 0.00 0.00 49 1013.8
20260505065505 42 89 1.7 6.1 0.00 0.00 0.00 49 1013.7
20260505064504 42 89 2.6 5.2 0.00 0.00 0.00 50 1013.7
20260505063504 43 53 0.9 7.0 0.00 0.00 0.00 49 1013.6
20260505062504 43 71 2.6 5.2 0.00 0.00 0.00 49 1013.7
20260505062005 43 79 1.7 2.6 0.00 0.00 0.00 50 1013.7
20260505061505 43 79 1.7 2.6 0.00 0.00 0.00 50 1013.7
20260505061005 43 79 1.7 5.2 0.00 0.00 0.00 50 1013.7
20260505060005 43 67 2.6 6.1 0.00 0.00 0.00 50 1013.6
20260505055504 43 52 4.3 6.1 0.00 0.00 0.00 49 1013.6
20260505055004 43 98 2.6 5.2 0.00 0.00 0.00 51 1013.6
20260505054504 43 83 2.6 10.4 0.00 0.00 0.00 51 1013.5
20260505054004 43 83 3.5 10.4 0.00 0.00 0.00 50 1013.4
20260505053505 43 88 4.3 7.0 0.00 0.00 0.00 52 1013.3
20260505052505 43 42 4.3 8.7 0.00 0.00 0.00 50 1013.3
20260505052005 43 82 3.5 10.4 0.00 0.00 0.00 51 1013.2
20260505051504 44 56 3.5 10.4 0.00 0.00 0.00 50 1013.3
20260505041504 44 54 7.8 15.6 0.00 0.00 0.00 50 1012.9
20260505041005 45 67 7.8 14.8 0.00 0.00 0.00 49 1012.9
20260505040005 45 71 9.6 13.9 0.00 0.00 0.00 50 1012.7
20260505035504 45 69 7.8 13.9 0.00 0.00 0.00 51 1012.6
20260505035004 45 58 7.8 10.4 0.00 0.00 0.00 53 1012.5
20260505034504 45 74 7.8 10.4 0.00 0.00 0.00 53 1012.4
20260505034004 46 78 7.0 10.4 0.00 0.00 0.00 54 1012.3
20260505033505 46 93 7.0 10.4 0.00 0.00 0.00 54 1012.1
20260505033004 46 83 7.0 10.4 0.00 0.00 0.00 54 1012.1
20260505032504 46 80 6.1 10.4 0.00 0.00 0.00 54 1012.0
20260505032004 46 72 5.2 10.4 0.00 0.00 0.00 53 1011.9
20260505031504 46 82 7.0 10.4 0.00 0.00 0.00 53 1011.9
20260505031004 46 69 5.2 10.4 0.00 0.00 0.00 53 1011.8
20260505030004 47 59 4.3 8.7 0.00 0.00 0.00 53 1011.7
20260505025504 47 48 6.1 8.7 0.00 0.00 0.00 52 1011.7
20260505025004 47 53 4.3 7.8 0.00 0.00 0.00 53 1011.6
20260505024504 47 55 4.3 8.7 0.00 0.00 0.00 52 1011.5
20260505023504 47 45 5.2 8.7 0.00 0.00 0.00 51 1011.3
20260505023005 47 47 3.5 5.2 0.00 0.00 0.00 51 1011.3
20260505022504 48 52 2.6 7.8 0.00 0.00 0.00 51 1011.3
20260505022005 48 38 3.5 8.7 0.00 0.00 0.00 50 1011.2
20260505021504 48 32 5.2 10.4 0.00 0.00 0.00 49 1011.2
20260505020004 49 25 5.2 10.4 0.00 0.00 0.00 47 1011.1
20260505015504 49 45 4.3 7.0 0.00 0.00 0.00 45 1011.1
20260505015004 49 63 1.7 6.1 0.00 0.00 0.00 44 1011.0
20260505014504 49 57 3.5 6.1 0.00 0.00 0.00 43 1011.0
20260505014004 49 64 3.5 6.1 0.00 0.00 0.00 43 1010.9
20260505013004 50 101 0.9 2.6 0.00 0.00 0.00 43 1010.8
20260505012504 50 102 1.7 2.6 0.00 0.00 0.00 42 1010.7
20260505012004 50 102 0.0 2.6 0.00 0.00 0.00 43 1010.7
20260505011504 51 102 0.9 2.6 0.00 0.00 0.00 43 1010.7
20260505011004 51 102 1.7 2.6 0.00 0.00 0.00 42 1010.7
20260505010004 51 102 2.6 2.6 0.00 0.00 0.00 42 1010.6
20260505005504 51 99 1.7 2.6 0.00 0.00 0.00 41 1010.6